Regional Weather Roundup
Issued by NWS

Home | Current Version | Previous Version | Text Only | Print | Product List | Glossary Off
Versions: 1 2 3 4 5 6 7 8 9 10 11 12 13 14 15 16 17 18 19 20 21 22 23 24 25 26 27 28 29 30 31 32 33 34 35 36 37 38 39 40 41 42 43 44 45 46 47 48 49 50

000
ASUS42 KTBW 282210
RWRFL
FLORIDA REGIONAL WEATHER ROUNDUP
NATIONAL WEATHER SERVICE TAMPA BAY RUSKIN FL
500 PM EST WED JAN 28 2015

NOTE: "FAIR" INDICATES FEW OR NO CLOUDS BELOW 12,000 FEET WITH NO
SIGNIFICANT WEATHER AND/OR OBSTRUCTIONS TO VISIBILITY.


FLZ001>010-012>015-112-114-115-282300-
PANHANDLE FLORIDA

CITY           SKY/WX    TMP DP  RH WIND       PRES   REMARKS
PENSACOLA      SUNNY     63  29  27 N3        30.23R
PENSACOLA NAS  MOSUNNY   57  40  52 SW8       30.23R
MILTON NAS     MOSUNNY   63  27  25 N6        30.24R SMOKE
CRESTVIEW      SUNNY     62  32  32 VRB5      30.24S
DUKE FIELD     MOSUNNY   61  29  30 N3        30.22S
VALPARAISO     SUNNY     56  40  54 S7        30.23R
MARY ESTHER    SUNNY     55  34  44 S6        30.23R
TRI COUNTY     FAIR      58  32  37 VRB3      30.25S
PANAMA CITY    FAIR      60  32  34 N3        30.22F
TYNDALL AFB    SUNNY     60  32  34 NE8       30.23F
APALACHICOLA   SUNNY     56  40  55 S7        30.24S

STATION/POSITION SKY/WX   TEMP    WIND        PRES    WAVE   SWELL
                          AIR SEA DIR/SP/G            HT/PER HT/PER
                          (F)     (DEG/KT/KT) (MB)    (FT/S) (FT/S)
30.1N   87.6W              58 63  220/  2/  4 1023.6R   1/ 4
29.2N   88.2W              60 69   70/  8/ 10 1024.1R   3/ 5   2/ 5
28.7N   86.0W              58 70   30/  8/ 12 1023.7S   2/ 4   2/ 4
PANAMA CITY BEAC           56 60  230/  3/  4 1023.3F
CAPE SAN BLAS    NOT AVBL
TOWER C                    51      70/  5/  6 1024.3R
28.5N   84.5W              56 68   30/ 10/ 12 1023.9R   2/ 4   2/ 4

$$
FLZ011-016>038-118-127-128-134-139-239-282300-
NORTH FLORIDA

CITY           SKY/WX    TMP DP  RH WIND       PRES   REMARKS
MARIANNA       SUNNY     56  32  40 NE7       30.25S
TALLAHASSEE    SUNNY     59  30  33 CALM      30.24R
PERRY          SUNNY     56  31  39 NE5       30.25R
CROSS CITY       N/A     58  32  37 N7        30.23R
LAKE CITY      FAIR      54  32  43 N8        30.23S
GAINESVILLE    SUNNY     57  30  35 N8        30.22S
MAYPORT NAS    SUNNY     50  26  39 NE8       30.27R
JACKSONVILLE   MOSUNNY   51  29  42 E8        30.25R
JAX NAS        SUNNY     54  28  36 E7        30.26R
JAX CRAIG      SUNNY     50  28  42 NE7       30.26R
JAX CECIL      SUNNY     54  32  43 NE12      30.25R
FERNANDINA BEA FAIR      54  32  43 NE7       30.25R
ST AUGUSTINE   SUNNY     50  34  54 N8        30.28R

STATION/POSITION SKY/WX   TEMP    WIND        PRES    WAVE   SWELL
                          AIR SEA DIR/SP/G            HT/PER HT/PER
                          (F)     (DEG/KT/KT) (MB)    (FT/S) (FT/S)
SHELL POINT      NOT AVBL
KEATON BEACH               56     360/  4/  6 1024.2R
CEDAR KEY                  53     310/  5/  7 1023.5S
FERNANDINA                 51 55   40/  4/  7 1024.0R
30.7N   81.3W                 57                N/A     4/ 6   2/13
MAYPORT                    49 58   50/  8/ 11 1024.9R
31.4N   80.9W              47 54   40/ 10/ 14 1024.7R   3/ 5   3/ 5
ST AUGUSTINE               49     360/ 15/ 16 1025.3R

$$
FLZ040-043>046-052-053-057-058-063-144-282300-
INTERIOR CENTRAL FLORIDA

CITY           SKY/WX    TMP DP  RH WIND       PRES   REMARKS
OCALA          SUNNY     57  30  35 NE5       30.21F
THE VILLAGES     N/A     57  32  38 N6        30.12R
LEESBURG       SUNNY     59  32  36 NE10      30.22R
SANFORD        SUNNY     57  38  48 NE10      30.22R
ORLANDO EXEC   SUNNY     60  37  42 NE13      30.20R
ORLANDO INTL   MOSUNNY   61  38  42 N9        30.21R
KISSIMMEE      SUNNY     61  34  36 N6        30.20R
WINTER HAVEN   SUNNY     61  31  32 N8        30.20R
LAKELAND       SUNNY     61  32  33 NE9       30.19R SMOKE
BARTOW         SUNNY     61  32  33 N8        30.19S
OKEECHOBEE     SUNNY     61  32  33 N10       30.17R

$$
FLZ041-047-054-059-064-141-147-282300-
EAST CENTRAL FLORIDA

CITY           SKY/WX    TMP DP  RH WIND       PRES   REMARKS
ORMOND BEACH   SUNNY     50  37  62 N13G20    30.24R
DAYTONA BEACH  MOSUNNY   54  39  57 N16       30.24R
DELAND         CLEAR     55  39  54 NE10      30.25R
NEW SMYRNA BEA MOSUNNY   54  39  58 N16G29    30.24R
JFK SPACE CTR  SUNNY     56  44  63 N14G20    30.21R
TITUSVILLE     SUNNY     55  45  67 N17G23    30.21R
CAPE CANAVERAL SUNNY     57  45  64 N13G22    30.20R
PATRICK AFB    SUNNY     58  46  64 N16       30.20R
MELBOURNE      MOSUNNY   59  45  59 N14       30.19R
VERO BEACH     MOSUNNY   59  44  57 N14       30.19R
FT PIERCE      SUNNY     60  42  51 N10       30.18R
STUART         MOSUNNY   59  37  44 N13G22    30.18R

STATION/POSITION SKY/WX   TEMP    WIND        PRES    WAVE   SWELL
                          AIR SEA DIR/SP/G            HT/PER HT/PER
                          (F)     (DEG/KT/KT) (MB)    (FT/S) (FT/S)
28.5N   80.2W              59 70  340/ 17/ 23 1021.6R
28.9N   78.5W              61 76  340/ 17/ 27 1020.9R   7/ 7   3/11
TRIDENT PIER               57 63  340/ 10/ 14 1022.2R
28.4N   80.5W                 62                N/A     3/13   2/13
27.6N   80.2W                 71                N/A     4/ 5   2/13

$$
FLZ050-056-061-142-242-148-248-149-249-151-251-155-255-
160-260-282300-
WEST CENTRAL FLORIDA

CITY           SKY/WX    TMP DP  RH WIND       PRES   REMARKS
CRYSTAL RIVER  FAIR      55  37  50 W8        30.22R
INVERNESS      FAIR      59  32  36 NE7       30.22R
BROOKSVILLE    SUNNY     59  39  47 N5        30.21R
ZEPHYRHILLS    FAIR      59  28  31 N9        30.20R
CLEARWATER     SUNNY     57  38  48 N13       30.20R
TAMPA INTL     SUNNY     59  37  44 NW10      30.20R
TAMPA EXEC     SUNNY     63  32  31 NE6       30.20R
PLANT CITY       N/A    N/A N/A N/A MISG        N/A
MACDILL AFB    SUNNY     58  41  52 NW8       30.20R
PETER O KNIGHT SUNNY     63  37  39 NW5       30.19R
ST PETERSBURG  SUNNY     59  37  44 N10       30.18R
SARASOTA       SUNNY     61  33  35 N7        30.17R
VENICE         FAIR      59  41  51 NW9       30.19R

STATION/POSITION SKY/WX   TEMP    WIND        PRES    WAVE   SWELL
                          AIR SEA DIR/SP/G            HT/PER HT/PER
                          (F)     (DEG/KT/KT) (MB)    (FT/S) (FT/S)
CEDAR KEY                  53     310/  5/  7 1023.5S
28.5N   84.5W              56 68   30/ 10/ 12 1023.9R   2/ 4   2/ 4
27.3N   84.3W                 72                N/A     3/ 5
CLEARWATER BEACH           53 61  360/ 15/ 19 1022.5R
MIDDLE TAMPA BAY           58      10/ 11/ 12 1022.4R
VENICE                     59 64  330/ 13/ 14 1021.6R

$$
FLZ066-069-070-075>078-162-262-165-265-282300-
SOUTHWEST FLORIDA AND KEYS

CITY           SKY/WX    TMP DP  RH WIND       PRES   REMARKS
PUNTA GORDA    SUNNY     64  31  28 N10       30.19R
FT MYERS       SUNNY     65  30  27 N14       30.16R
SOUTHWEST INTL SUNNY     65  31  28 NE10      30.16R
NAPLES         SUNNY     67  33  28 N7        30.15R
MARCO ISLAND   CLEAR     66  34  30 N9        30.14S
IMMOKALEE      CLEAR    N/A N/A N/A N8        30.16R
MARATHON       SUNNY     64  47  53 N8        30.13S
KEY WEST NAS   SUNNY     64  44  48 N15       30.15R
KEY WEST INTL  SUNNY     65  47  52 N14       30.15R

STATION/POSITION SKY/WX   TEMP    WIND        PRES    WAVE   SWELL
                          AIR SEA DIR/SP/G            HT/PER HT/PER
                          (F)     (DEG/KT/KT) (MB)    (FT/S) (FT/S)
VENICE                     59 64  330/ 13/ 14 1021.6R
NAPLES                     64 74  340/ 12/ 14 1021.3R
26.0N   85.6W              66 73   20/ 14/ 17 1022.1R   4/ 6
DRY TORTUGAS               64      10/ 14/ 16 1020.7S
NW FL BAY                  64     330/ 12/ 16 1020.0R
SAND KEY                   62     360/ 17/ 21 1020.8R
SOMBRERO KEY               64     360/ 14/ 15 1021.1R
LONG KEY                   64 67   30/ 13/ 17 1020.8R
MOLASSES REEF              64 74   30/ 11/ 13 1020.1R

$$
FLZ067-068-071>074-168-172>174-282300-
SOUTHEAST FLORIDA

CITY           SKY/WX    TMP DP  RH WIND       PRES   REMARKS
W PALM BEACH   MOSUNNY   64  32  30 N17       30.14R
FT LAUDER-EXEC SUNNY     67  30  25 N8        30.13R
FT LAUDERDALE  SUNNY     66  38  35 NE13      30.13R
POMPANO BEACH  SUNNY     67  35  30 NE15      30.14R
PEMBROKE PINES SUNNY     67  31  26 NW12      30.14R
OPA LOCKA      SUNNY     67  30  25 N8        30.14R
MIAMI          MOSUNNY   67  29  24 N10G16    30.14R
WEST KENDALL   SUNNY     66  37  34 N13       30.14R
HOMESTEAD      SUNNY     67  35  30 N10       30.13R

STATION/POSITION SKY/WX   TEMP    WIND        PRES    WAVE   SWELL
                          AIR SEA DIR/SP/G            HT/PER HT/PER
                          (F)     (DEG/KT/KT) (MB)    (FT/S) (FT/S)
PORT EVERGLADES            65      30/  7/ 14 1020.1



USA.gov is the U.S. government's official web portal to all federal, state and local government web resources and services.